2018-084A (43671 NORAD) Tracking and Keplerian Element Data

This shows tracking and keplerian element data for the satellite.

Feedback or suggestion? Click here.




ElementValue
Catalog43671
Name2018-084A
Epoch Orbit265
Epoch Day319.98870069
Epoch Year2018
RAAN70.4558
Inclination97.8446
Eccentricity0.0011939
Argument of Perigee300.8816
Mean Anonmoly59.106
Mean Motion14.92591444
Decay Rate0.00025723
L11 43671U 18084A 18319.98870069 .00025723 00000-0 24946-2 0 9997
L22 43671 97.8446 70.4558 0011939 300.8816 59.1060 14.92591444 2656

Live tracking and technical data element details for 2018-084A (NORAD 43671). 2018-084A can be tracked NOW for your location showing map with azimuth and elevation plus other details from your city location.

Track the satellite on the map from your city or location and see movement details for azimuth, elevation, latitude, longitude, range, height, and movement on the map or in text.







IsCatalogInMostPopularTable: catalog: 43671, numindb: 7
Update: records affected: 1



GetName: 43671 2018-084A

Hit Count: updated at: Sat, 17 Nov 2018 02:05:11 GMT